User: anonymous   Login
Location: Albany
(35.0000°S, 118.0000°E)
Time: 10:08:07
(UTC-04:00)
Language:

Radarsat Rocket - Orbit

View from above orbital plane
View from above orbital plane
View from above satellite
View from above satellite

Ground track
Ground track

The orbit data is extracted from the following two-line orbital elements,

1 23711U 95059B   16181.05503682 -.00000009  00000-0  69118-4 0  9997
2 23711 100.5262 167.3931 0368552  37.5503   4.2598 13.12685962989461
Epoch (UTC): 29 June 2016 01:19:15
Eccentricity: 0.0368552
inclination: 100.5262°
perigee height: 933 km
apogee height: 1492 km
right ascension of ascending node: 167.3931°
argument of perigee: 37.5503°
revolutions per day: 13.12685962
mean anomaly at epoch: 4.2598°
orbit number at epoch: 98946

The dashed part of the orbit path shows where the satellite is in the earth's shadow,  

DLR